Weather History for KTVK - January, 2013

Change the Weather History Date:

Monday, January 7, 2013

  Actual Average Record
Temperature  
Mean Temperature 34 °F -  
Max Temperature 44 °F 26 °F - (-1)
Min Temperature 23 °F 10 °F - (-1)
Degree Days  
Heating Degree Days 32    
Moisture  
Dew Point 23 °F    
Average Humidity 66    
Maximum Humidity 80    
Minimum Humidity 46    
Precipitation  
Precipitation 0.00 in - - ()
Sea Level Pressure  
Sea Level Pressure 30.13 in    
Wind  
Wind Speed 11 mph (South)    
Max Wind Speed 23 mph    
Max Gust Speed 29 mph    
Visibility 10 miles    
Events      
Averages and records for this station are not official NWS values.
T = Trace of Precipitation, MM = Missing Value Source: NWS Daily Summary

Daily Weather History Graph

Daily Weather History Graph

Search for Another Location

Airport or City:

Trip Planner

Search our weather history database for the weather conditions in past years. The results will help you decide how hot, cold, wet, or windy it might be!

Date:

Astronomy

Jan. 07, 2013 Rise Set
Actual Time 7:35 AM CST 5:00 PM CST
Civil Twilight 7:04 AM CST 5:31 PM CST
Nautical Twilight 6:30 AM CST 6:05 PM CST
Astronomical Twilight 5:57 AM CST 6:38 PM CST
Moon 2:59 AM CST (1/7) 1:12 PM CST (1/7)
Length of Visible Light 10h 26m
Length of Day
9h 25m
Waning Crescent, 22% of the Moon is Illuminated
Jan 7
Waning Crescent
Jan 11
New
Jan 18
First Quarter
Jan 26
Full
Feb 3
Last Quarter

Hourly Weather History & Observations

Time (CST) Temp. Windchill Dew Point Humidity Pressure Visibility Wind Dir Wind Speed Gust Speed Precip Events Conditions
12:15 AM 24.8 °F 16.9 °F 17.6 °F 74% 30.25 in - South 6.9 mph - N/A   Clear
12:35 AM 24.8 °F 17.9 °F 17.6 °F 74% 30.25 in - South 5.8 mph - N/A   Clear
12:55 AM 23.0 °F 13.1 °F 17.6 °F 80% 30.24 in - SSE 9.2 mph - N/A   Clear
1:15 AM 24.8 °F 16.1 °F 19.4 °F 80% 30.24 in - South 8.1 mph - N/A   Clear
1:35 AM 24.8 °F 15.3 °F 19.4 °F 80% 30.25 in - South 9.2 mph - N/A   Clear
1:55 AM 24.8 °F 14.6 °F 19.4 °F 80% 30.25 in - South 10.4 mph - N/A   Clear
2:15 AM 24.8 °F 15.3 °F 19.4 °F 80% 30.25 in - South 9.2 mph - N/A   Clear
2:35 AM 24.8 °F 15.3 °F 19.4 °F 80% 30.25 in - SSE 9.2 mph - N/A   Clear
2:55 AM 26.6 °F 16.8 °F 19.4 °F 74% 30.25 in - SSE 10.4 mph - N/A   Clear
3:15 AM 26.6 °F 16.2 °F 21.2 °F 80% 30.25 in - South 11.5 mph - N/A   Clear
3:35 AM 26.6 °F 15.2 °F 21.2 °F 80% 30.24 in - South 13.8 mph - N/A   Clear
3:55 AM 26.6 °F 15.7 °F 21.2 °F 80% 30.24 in - South 12.7 mph - N/A   Clear
4:15 AM 26.6 °F 16.2 °F 21.2 °F 80% 30.23 in - South 11.5 mph - N/A   Clear
4:35 AM 26.6 °F 16.2 °F 21.2 °F 80% 30.23 in - South 11.5 mph - N/A   Clear
4:55 AM 26.6 °F 15.7 °F 21.2 °F 80% 30.22 in - South 12.7 mph - N/A   Clear
5:15 AM 26.6 °F 15.7 °F 21.2 °F 80% 30.21 in - South 12.7 mph - N/A   Clear
5:35 AM 26.6 °F 15.7 °F 21.2 °F 80% 30.20 in - SSE 12.7 mph 21.9 mph N/A   Clear
5:55 AM 26.6 °F 16.2 °F 19.4 °F 74% 30.20 in - South 11.5 mph - N/A   Clear
6:15 AM 26.6 °F 15.7 °F 19.4 °F 74% 30.20 in - SSE 12.7 mph - N/A   Clear
6:35 AM 28.4 °F 18.0 °F 19.4 °F 69% 30.20 in - SSE 12.7 mph - N/A   Clear
6:55 AM 26.6 °F 16.2 °F 19.4 °F 74% 30.20 in - South 11.5 mph - N/A   Clear
7:35 AM 26.6 °F 16.8 °F 19.4 °F 74% 30.20 in - South 10.4 mph - N/A   Clear
7:55 AM 26.6 °F 16.2 °F 19.4 °F 74% 30.20 in - South 11.5 mph - N/A   Clear
8:15 AM 26.6 °F 16.2 °F 19.4 °F 74% 30.19 in - South 11.5 mph - N/A   Clear
8:35 AM 28.4 °F 17.5 °F 21.2 °F 74% 30.19 in - South 13.8 mph - N/A   Clear
8:55 AM 30.2 °F 19.3 °F 21.2 °F 69% 30.18 in - South 15.0 mph - N/A   Clear
9:15 AM 32.0 °F 21.2 °F 21.2 °F 64% 30.17 in - South 16.1 mph 24.2 mph N/A   Clear
9:35 AM 32.0 °F 21.6 °F 23.0 °F 69% 30.17 in - South 15.0 mph 20.7 mph N/A   Clear
9:55 AM 33.8 °F 24.3 °F 23.0 °F 65% 30.16 in - South 13.8 mph - N/A   Clear
10:15 AM 35.6 °F 25.9 °F 23.0 °F 60% 30.16 in - South 16.1 mph 23.0 mph N/A   Clear
10:35 AM 37.4 °F 27.2 °F 23.0 °F 56% 30.15 in 10.0 mi South 19.6 mph 26.5 mph N/A   Clear
10:55 AM 39.2 °F 30.8 °F 23.0 °F 52% 30.16 in 10.0 mi South 15.0 mph 21.9 mph N/A   Clear
11:15 AM 41.0 °F 31.1 °F 23.0 °F 49% 30.13 in 10.0 mi South 23.0 mph 28.8 mph N/A   Clear
11:35 AM 41.0 °F 31.9 °F 23.0 °F 49% 30.12 in 10.0 mi South 19.6 mph 26.5 mph N/A   Clear
11:55 AM 41.0 °F 32.2 °F 24.8 °F 53% 30.11 in 10.0 mi SSW 18.4 mph - N/A   Clear
12:15 PM 42.8 °F 34.3 °F 24.8 °F 49% 30.10 in 10.0 mi SSW 19.6 mph 24.2 mph N/A   Clear
12:35 PM 42.8 °F 34.8 °F 23.0 °F 46% 30.09 in 10.0 mi South 17.3 mph 26.5 mph N/A   Clear
12:55 PM 42.8 °F 34.5 °F 23.0 °F 46% 30.08 in 10.0 mi SSW 18.4 mph 24.2 mph N/A   Clear
1:15 PM 42.8 °F 34.5 °F 23.0 °F 46% 30.07 in 10.0 mi South 18.4 mph 26.5 mph N/A   Clear
1:35 PM 42.8 °F 34.3 °F 24.8 °F 49% 30.06 in 10.0 mi South 19.6 mph 24.2 mph N/A   Clear
1:55 PM 44.6 °F 36.4 °F 24.8 °F 46% 30.05 in 10.0 mi South 20.7 mph 24.2 mph N/A   Clear
2:15 PM 44.6 °F 37.8 °F 24.8 °F 46% 30.05 in 10.0 mi South 15.0 mph 23.0 mph N/A   Clear
2:35 PM 44.6 °F 38.4 °F 24.8 °F 46% 30.05 in 10.0 mi South 12.7 mph 21.9 mph N/A   Clear
2:55 PM 44.6 °F 37.4 °F 24.8 °F 46% 30.05 in 10.0 mi South 16.1 mph - N/A   Clear
3:15 PM 44.6 °F 38.4 °F 24.8 °F 46% 30.05 in 10.0 mi South 12.7 mph - N/A   Clear
3:35 PM 42.8 °F 35.8 °F 24.8 °F 49% 30.05 in 10.0 mi South 13.8 mph - N/A   Clear
3:55 PM 41.0 °F 34.3 °F 24.8 °F 53% 30.05 in 10.0 mi South 11.5 mph - N/A   Clear
4:15 PM 41.0 °F 33.9 °F 24.8 °F 53% 30.05 in 10.0 mi South 12.7 mph - N/A   Clear
4:35 PM 39.2 °F 32.5 °F 24.8 °F 56% 30.05 in 10.0 mi South 10.4 mph - N/A   Clear
4:55 PM 39.2 °F 33.6 °F 24.8 °F 56% 30.04 in 10.0 mi South 8.1 mph - N/A   Clear
5:15 PM 39.2 °F 34.2 °F 26.6 °F 61% 30.05 in 10.0 mi South 6.9 mph - N/A   Clear
5:35 PM 37.4 °F 32.1 °F 26.6 °F 65% 30.05 in 10.0 mi South 6.9 mph - N/A   Clear
5:55 PM 37.4 °F 32.1 °F 26.6 °F 65% 30.05 in 10.0 mi South 6.9 mph - N/A   Clear
6:15 PM 37.4 °F 31.4 °F 26.6 °F 65% 30.05 in 10.0 mi South 8.1 mph - N/A   Clear
6:35 PM 37.4 °F 31.4 °F 26.6 °F 65% 30.05 in 10.0 mi South 8.1 mph - N/A   Clear
6:55 PM 37.4 °F 30.8 °F 26.6 °F 65% 30.05 in 10.0 mi South 9.2 mph - N/A   Clear
7:15 PM 37.4 °F 31.4 °F 26.6 °F 65% 30.06 in 10.0 mi South 8.1 mph - N/A   Clear
7:35 PM 37.4 °F 31.4 °F 28.4 °F 70% 30.06 in 10.0 mi South 8.1 mph - N/A   Clear
7:55 PM 35.6 °F 29.9 °F 26.6 °F 70% 30.06 in - South 6.9 mph - N/A   Clear
8:15 PM 35.6 °F 29.9 °F 26.6 °F 70% 30.05 in - South 6.9 mph - N/A   Clear
8:35 PM 35.6 °F 29.9 °F 26.6 °F 70% 30.06 in - South 6.9 mph - N/A   Clear
8:55 PM 35.6 °F 29.9 °F 26.6 °F 70% 30.05 in - South 6.9 mph - N/A   Clear
9:15 PM 33.8 °F 27.0 °F 26.6 °F 75% 30.05 in - South 8.1 mph - N/A   Clear
9:35 PM 35.6 °F 29.2 °F 26.6 °F 70% 30.06 in - South 8.1 mph - N/A   Clear
9:55 PM 35.6 °F 28.6 °F 26.6 °F 70% 30.05 in - South 9.2 mph - N/A   Clear
10:15 PM 35.6 °F 29.2 °F 26.6 °F 70% 30.05 in - South 8.1 mph - N/A   Clear
10:35 PM 35.6 °F 28.6 °F 26.6 °F 70% 30.05 in - South 9.2 mph - N/A   Clear
10:55 PM 35.6 °F 28.6 °F 26.6 °F 70% 30.05 in - South 9.2 mph - N/A   Clear
11:15 PM 35.6 °F 29.2 °F 26.6 °F 70% 30.05 in - South 8.1 mph - N/A   Clear
11:35 PM 35.6 °F 29.9 °F 26.6 °F 70% 30.05 in - South 6.9 mph - N/A   Clear